date,time,DOY,Ta_1_1_1,Pa_1_1_1,RH_1_1_1,LWin_1_1_1,LWout_1_1_1,SWin_1_1_1,SWout_1_1_1,PPFD_1_1_1,MWS_1_1_1,WD_1_1_1,SWC_1_1_1,Ts_1_1_1
[yyyy-mm-dd],[HH:MM],[ddd.ddd],[K],[Pa],[%],[W+1m-2],[W+1m-2],[W+1m-2],[W+1m-2],[µmol+1m-2s-1],[m+1s-1],[deg],[m+3m-3],[K]
2018-06-23,00:30,174.020,297.12999999999994,94366.600000000006,25.343333333333330,441.77533333333332,358.14433333333341,56.278666666666666,233.88166666666666,476.75733333333341,2.1699999999999999,87.588999999999984,0.28999999999999992,288.71833333333342
2018-06-23,01:00,174.041,296.62233333333347,94350.100000000006,25.737666666666666,432.52700000000010,351.30633333333333,30.625666666666671,118.22966666666666,246.39533333333330,1.9566666666666666,66.532666666666685,0.28999999999999992,288.70533333333327
2018-06-23,01:30,174.062,295.81233333333341,94345.766666666663,28.397333333333332,426.97266666666656,347.33533333333332,21.983000000000001,68.824999999999989,137.68899999999999,2.6099999999999999,94.344666666666669,0.28999999999999992,288.67699999999996
2018-06-23,02:00,174.083,295.19233333333335,94334.566666666666,30.347666666666658,419.35633333333334,343.91200000000003,3.3223333333333338,5.4520000000000000,22.348666666666659,2.6799999999999997,99.711000000000013,0.28999999999999992,288.63766666666669
2018-06-23,02:30,174.104,294.32233333333346,94328.933333333334,34.673999999999999,414.01033333333328,341.11399999999998,0.52100000000000002,-5.3706666666666685,1.2259999999999998,2.9633333333333334,104.27833333333335,0.28999999999999992,288.57933333333341
2018-06-23,03:00,174.124,292.65133333333347,94351.699999999997,39.336666666666666,407.33499999999987,338.07166666666666,0.98399999999999987,-5.1166666666666663,6.66666666666666709E-003,3.1666666666666670,116.13300000000000,0.28999999999999992,288.50433333333336
2018-06-23,03:30,174.145,291.97900000000004,94369.433333333334,41.094000000000001,403.10000000000002,337.94766666666669,0.89200000000000013,-4.9423333333333321,0.0000000000000000,2.5333333333333332,118.03400000000002,0.28999999999999992,288.41833333333329
2018-06-23,04:00,174.166,291.12666666666667,94367.566666666666,47.684999999999988,398.47933333333339,337.28266666666673,0.92433333333333356,-4.5186666666666655,-5.00000000000000010E-003,2.8533333333333331,111.62233333333333,0.28999999999999992,288.32400000000001
2018-06-23,04:30,174.187,290.18633333333332,94376.100000000006,56.058666666666660,395.01166666666660,339.84133333333324,0.78833333333333333,-4.0403333333333329,-3.00000000000000006E-003,2.9799999999999995,109.42166666666665,0.28999999999999992,288.22266666666667
2018-06-23,05:00,174.208,289.70200000000006,94375.100000000006,57.074666666666658,393.93266666666671,340.61233333333331,0.84633333333333316,-3.6183333333333332,-2.00000000000000004E-003,3.9033333333333338,113.28899999999999,0.28999999999999992,288.11300000000000
2018-06-23,05:30,174.229,289.25966666666682,94377.433333333334,59.172333333333334,391.47333333333336,337.31699999999995,0.92033333333333323,-3.7740000000000005,-1.00000000000000002E-003,3.0566666666666662,116.26633333333332,0.28999999999999992,288.00933333333330
2018-06-23,06:00,174.249,288.78000000000009,94351.399999999994,57.146333333333338,388.99599999999998,333.45566666666673,0.97366666666666679,-3.6483333333333339,-4.00000000000000008E-003,3.6866666666666665,117.94466666666668,0.28999999999999992,287.91433333333333
2018-06-23,06:30,174.270,288.43900000000002,94325.166666666672,54.466666666666669,386.76333333333332,329.41299999999995,0.86466666666666658,-3.9230000000000000,-7.00000000000000015E-003,3.3200000000000007,118.85566666666666,0.28999999999999992,287.81033333333329
2018-06-23,07:00,174.291,288.42533333333341,94262.333333333328,55.605666666666671,384.90166666666664,323.18399999999997,1.3736666666666664,-3.9546666666666668,-1.09999999999999994E-002,2.8733333333333335,122.59933333333333,0.28999999999999992,287.71333333333325
2018-06-23,07:30,174.312,288.78966666666668,94276.899999999994,54.954999999999998,385.83366666666666,320.76800000000003,1.3833333333333333,-4.1049999999999995,-1.26666666666666664E-002,3.1399999999999997,168.84466666666668,0.28999999999999992,287.61766666666671
2018-06-23,08:00,174.333,289.35233333333326,94254.199999999997,47.351333333333336,385.87033333333335,320.96999999999997,1.1613333333333331,-4.4359999999999982,-1.60000000000000038E-002,2.9533333333333336,163.68866666666665,0.28999999999999992,287.51766666666663
2018-06-23,08:30,174.354,289.79800000000006,94275.500000000000,46.946333333333335,390.18399999999997,321.19400000000013,1.6023333333333336,-4.2370000000000001,-9.66666666666666716E-003,3.3566666666666665,191.03333333333333,0.28999999999999992,287.42166666666674
2018-06-23,09:00,174.374,288.68266666666671,94287.566666666666,55.361999999999995,386.03700000000003,318.35800000000000,0.48166666666666669,-4.9783333333333353,-9.00000000000000105E-003,3.3766666666666665,191.67800000000000,0.28999999999999992,287.32600000000008
2018-06-23,09:30,174.395,287.36933333333337,94276.433333333334,67.070333333333323,379.66999999999996,313.79533333333325,1.4426666666666665,-3.8860000000000010,1.13333333333333341E-002,3.4266666666666667,190.05566666666667,0.28999999999999992,287.23499999999996
2018-06-23,10:00,174.416,287.05700000000002,94294.433333333334,67.996999999999986,378.69166666666661,313.23899999999998,1.4673333333333332,-2.7946666666666671,1.4969999999999999,3.6766666666666663,206.21033333333332,0.28999999999999992,287.15233333333339
2018-06-23,10:30,174.437,287.15633333333341,94296.566666666666,70.186333333333323,379.23900000000009,314.82366666666655,6.2366666666666664,15.646666666666668,25.983333333333331,3.3200000000000007,208.10033333333334,0.28999999999999992,287.07300000000009
2018-06-23,11:00,174.458,287.36633333333333,94279.666666666672,67.693000000000012,381.06000000000006,316.02833333333331,15.814333333333334,68.293999999999997,106.50666666666667,3.4733333333333323,201.36700000000002,0.28999999999999992,286.99866666666662
2018-06-23,11:30,174.479,287.61100000000005,94275.933333333334,67.724666666666664,385.35533333333331,318.81499999999994,27.119333333333330,141.04400000000001,229.08366666666663,3.2033333333333336,203.33333333333334,0.28999999999999992,286.93000000000001
2018-06-23,12:00,174.499,288.50266666666670,94245.000000000000,63.752000000000017,391.66099999999989,323.69766666666658,38.034999999999989,224.83966666666666,382.86600000000004,2.1633333333333336,157.90033333333335,0.28999999999999992,286.87366666666662
2018-06-23,12:30,174.520,289.66066666666671,94182.433333333334,64.344333333333310,399.44599999999997,329.02599999999995,52.367333333333335,315.07899999999989,559.03066666666643,2.0266666666666664,93.343666666666650,0.28999999999999992,286.83833333333331
2018-06-23,13:00,174.541,290.95566666666679,94188.366666666669,59.957333333333331,409.30500000000006,336.38266666666664,67.000666666666675,406.52400000000000,745.87366666666651,2.1333333333333333,194.60033333333334,0.28999999999999992,286.81833333333338
2018-06-23,13:30,174.562,292.05266666666665,94180.300000000003,52.692000000000007,418.34433333333345,343.65999999999997,80.401666666666671,493.25266666666658,932.79966666666644,1.2500000000000000,258.32300000000004,0.28999999999999992,286.81900000000002
2018-06-23,14:00,174.583,293.29633333333339,94170.000000000000,49.593000000000004,427.83400000000006,352.54866666666663,94.152000000000001,583.54366666666658,1123.0126666666665,2.0099999999999998,268.82266666666669,0.28999999999999992,286.84266666666673
2018-06-23,14:30,174.604,294.04466666666667,94172.433333333334,46.888333333333328,434.97266666666678,360.44766666666663,110.81500000000001,682.84433333333334,1328.4646666666670,2.3699999999999997,277.33366666666666,0.28999999999999992,286.90066666666667
2018-06-23,15:00,174.624,294.61633333333333,94167.800000000003,42.334999999999994,439.40166666666676,362.34766666666673,120.86566666666671,745.09900000000016,1462.3719999999998,2.7766666666666668,281.22199999999998,0.28999999999999992,286.99266666666671
2018-06-23,15:30,174.645,295.02200000000005,94169.766666666663,39.127666666666663,442.84666666666647,365.55200000000002,130.13833333333335,806.07533333333311,1601.5890000000004,2.5499999999999994,288.87799999999999,0.28999999999999992,287.08633333333341
2018-06-23,16:00,174.666,295.74833333333339,94177.699999999997,37.638999999999996,448.94366666666679,370.39100000000002,137.74633333333335,863.56800000000010,1730.7706666666663,2.4000000000000004,150.52266666666668,0.28999999999999992,287.19099999999997
2018-06-23,16:30,174.687,296.12800000000004,94193.199999999997,33.876999999999995,452.41299999999990,370.59900000000010,148.03400000000002,913.27466666666669,1835.0703333333338,2.5699999999999998,99.122666666666660,0.28999999999999992,287.31500000000000
2018-06-23,17:00,174.708,296.40400000000005,94190.666666666672,31.435333333333340,454.45466666666675,372.27000000000010,152.23800000000000,938.33933333333323,1898.1376666666665,2.0366666666666666,132.21099999999998,0.28999999999999992,287.47866666666664
2018-06-23,17:30,174.729,296.94633333333331,94180.866666666669,31.151333333333341,458.91233333333332,377.84466666666668,154.53500000000003,958.83733333333328,1959.7356666666667,1.8299999999999998,205.09999999999999,0.28999999999999992,287.61466666666666
2018-06-23,18:00,174.749,297.35566666666665,94164.100000000006,31.079999999999998,460.07899999999995,380.93166666666667,148.78766666666661,924.61700000000008,1893.8619999999999,2.2200000000000006,173.98833333333332,0.28533333333333333,287.75966666666670
2018-06-23,18:30,174.770,297.67166666666668,94154.199999999997,29.256999999999998,463.23800000000000,381.95633333333336,158.38366666666667,982.44866666666655,2014.4496666666664,3.0100000000000002,261.06633333333332,0.28000000000000014,287.89966666666658
2018-06-23,19:00,174.791,297.89000000000004,94151.899999999994,29.896333333333327,463.44099999999986,383.12399999999997,158.76200000000000,965.17266666666683,1990.2639999999999,3.2166666666666663,198.93333333333334,0.28066666666666679,288.07666666666671
2018-06-23,19:30,174.812,297.95233333333346,94154.033333333340,30.273666666666667,462.28333333333325,383.37200000000007,151.34333333333336,896.26399999999990,1852.9486666666667,3.1433333333333331,213.24533333333335,0.28000000000000014,288.29599999999999
2018-06-23,20:00,174.833,298.15233333333339,94146.166666666672,29.388999999999992,463.42700000000002,385.06366666666679,142.78233333333336,839.97366666666653,1743.3016666666665,2.7999999999999998,194.27799999999999,0.28000000000000014,288.46266666666668
2018-06-23,20:30,174.854,298.17300000000000,94137.333333333328,29.276000000000003,462.96066666666667,385.61466666666661,139.26100000000000,796.75933333333342,1652.9883333333337,2.0699999999999998,284.97800000000001,0.28000000000000014,288.59166666666664
2018-06-23,21:00,174.874,298.30500000000006,94139.233333333337,29.952666666666669,460.50800000000004,386.10033333333337,117.17800000000001,665.65966666666668,1387.0173333333332,2.3033333333333337,231.33300000000000,0.28000000000000014,288.69366666666667
2018-06-23,21:30,174.895,298.49633333333333,94144.399999999994,30.102333333333334,460.86000000000007,387.32866666666666,116.09500000000000,645.67600000000016,1351.3993333333337,2.1400000000000006,141.46700000000001,0.28000000000000014,288.77866666666677
2018-06-23,22:00,174.916,297.96533333333338,94143.899999999994,35.073333333333338,452.43366666666668,383.78833333333324,82.189666666666653,449.99866666666668,941.79366666666681,2.9166666666666670,254.45533333333336,0.28000000000000014,288.84133333333347
2018-06-23,22:30,174.937,297.65199999999993,94144.300000000003,38.150333333333329,447.94566666666668,385.02800000000002,70.467333333333329,376.07066666666663,780.09300000000030,2.7100000000000004,252.43266666666665,0.28000000000000014,288.88666666666666
2018-06-23,23:00,174.958,297.37233333333336,94139.766666666663,40.354000000000006,444.98199999999997,382.10666666666668,59.387333333333331,308.92600000000004,637.55433333333337,3.3399999999999994,128.04533333333336,0.28000000000000014,288.92066666666676
2018-06-23,23:30,174.979,297.08400000000012,94138.433333333334,41.874666666666648,442.02300000000008,379.76799999999992,47.509333333333338,242.89566666666667,503.04799999999989,3.3733333333333335,174.34333333333333,0.28000000000000014,288.94199999999995
2018-06-24,00:00,175.000,296.47533333333325,94140.766666666663,44.403666666666666,437.80899999999986,375.51266666666675,39.512999999999998,193.27433333333332,398.47166666666669,4.0566666666666666,284.46566666666672,0.28000000000000014,288.95033333333328
